Regional Weather Roundup
Issued by NWS

Home | Current Version | Previous Version | Text Only | Print | Product List | Glossary On
Versions: 1 2 3 4 5 6 7 8 9 10 11 12 13 14 15 16 17 18 19 20 21 22 23 24 25 26 27 28 29 30 31 32 33 34 35 36 37 38 39 40 41 42 43 44 45 46 47 48 49 50
000
ASUS43 KMPX 192110
RWRMN
WEATHER ROUNDUP FOR MINNESOTA
NATIONAL WEATHER SERVICE TWIN CITIES/CHANHASSEN MN
300 PM CST FRI DEC 19 2014


NOTE: "FAIR" INDICATES FEW OR NO CLOUDS BELOW 12,000 FEET WITH NO
SIGNIFICANT WEATHER AND/OR OBSTRUCTIONS TO VISIBILITY. N/A MEANS
CURRENT SKY AND/OR WEATHER CONDITIONS ARE NOT AVAILABLE.

MNZ060>063-068>070-192200-
   Twin Cities Metro

CITY           SKY/WX    TMP DP  RH WIND       PRES   REMARKS
TWIN CITIES    CLOUDY    28  23  81 SE10      30.19F WCI  19
ST PAUL        CLOUDY    28  23  81 SE9       30.21F WCI  19
CRYSTAL        CLOUDY    29  23  78 SE7       30.17F HAZE    WCI  22
BLAINE         CLOUDY    28  25  86 SE9       30.18F WCI  20
LAKEVILLE      PTSUNNY   28  25  86 SE7       30.18S FOG     WCI  21
EDEN PRAIRIE   CLOUDY    29  24  82 SE10      30.17F HAZE    WCI  20
SOUTH ST PAUL  CLOUDY    29  24  81 SE8       30.19F WCI  21
LAKE ELMO      CLOUDY    28  25  86 SE7       30.20F WCI  21
$$
MNZ001>005-007-008-013>017-022>024-027-028-192200-
   Northwest Minnesota

CITY           SKY/WX    TMP DP  RH WIND       PRES   REMARKS
BEMIDJI        FOG       22  22  97 SE10      30.05F VSB 1   WCI  12
HALLOCK        CLOUDY    28  27  93 S10       30.01S FOG     WCI  19
ROSEAU         CLOUDY    27  21  80 SE8       30.04F HAZE    WCI  18
WARROAD        CLOUDY    25  19  80 SE8       30.06S FOG     WCI  16
THIEF RVR FALL CLOUDY    25  25 100 SE12      30.03S WCI  14
CROOKSTON      CLOUDY    27  27 100 S9        30.03F FOG     WCI  17
FOSSTON        CLOUDY    25  21  86 SE8       30.04S FOG     WCI  16
DETROIT LAKES  CLOUDY    28  28 100 SE10      30.04S FOG     WCI  19
MOORHEAD       CLOUDY    30  30 100 S14       30.04R FOG     WCI  20
PARK RAPIDS    FOG       25  23  92 S12       30.06S VSB 3/4 WCI  14
MAHNOMEN       CLOUDY    26  25  95 S12       30.03S FOG     WCI  16
$$
MNZ006-009>011-018-025>026-192200-
   North Central Minnesota

CITY           SKY/WX    TMP DP  RH WIND       PRES   REMARKS
BAUDETTE       CLOUDY    24  20  84 S6        30.07S WCI  17
FLAG ISLAND    CLOUDY    23  19  86 S17       30.06S FOG     WCI   9
INTL FALLS     CLOUDY    24  19  81 S7        30.11S WCI  16
WASKISH        CLOUDY    25  21  86 CALM      30.08S FOG
BIG FORK       CLOUDY    25  21  86 SE5       30.11R WCI  19
LONGVILLE      CLOUDY    23  21  93 SE9       30.10S FOG     WCI  13
GRAND RAPIDS   CLOUDY    23  19  86 SE10      30.11S WCI  12
CRANE LAKE     FLURRIES  23  19  86 SE3       30.17R
ORR            MIX PCPN  25  19  80 SE8       30.10S WCI  16
COOK           CLOUDY    23  19  86 SE7       30.13S WCI  15
WALKER         CLOUDY    22  21  96 SE6       30.07F FOG     WCI  15
$$
MNZ012-019>021-037-192200-
   Northeast Minnesota

CITY           SKY/WX    TMP DP  RH WIND       PRES   REMARKS
DULUTH         FLURRIES  24  19  81 SE8       30.15F WCI  15
ELY            CLOUDY    23  19  86 S5        30.14S WCI  17
HIBBING        CLOUDY    25  19  78 S7        30.13S WCI  17
EVELETH        MIX PCPN  25  21  86 SE7       30.15S WCI  17
DULUTH HARBOR  CLOUDY    28  23  80 CALM      30.22S
TWO HARBORS    CLOUDY    27  21  80 S6        30.17S WCI  20
SILVER BAY     FLURRIES  27  23  86 CALM      30.17S
GRAND MARAIS     N/A     30  22  72 SE10      30.23S WCI  21
G MARAIS ARPRT CLOUDY    21  18  86 SE7       30.16R WCI  13
$$
MNZ029>031-032-039>041-046>048-054>057-064-192200-
   West Central Minnesota

CITY           SKY/WX    TMP DP  RH WIND       PRES   REMARKS
FERGUS FALLS   CLOUDY    28  27  93 S15       30.08S FOG     WCI  17
WHEATON        CLOUDY    28  27  93 SE13      30.06F FOG     WCI  18
MORRIS         PTSUNNY   30  28  93 S14       30.06S FOG     WCI  20
ALEXANDRIA     CLOUDY    29  27  92 S13       30.07S FOG     WCI  19
ELBOW LAKE     CLOUDY    29  28  94 S17       30.05S FOG     WCI  17
WADENA         FOG       25  25 100 SE7       30.06F VSB 3/4 WCI  17
GLENWOOD       CLOUDY    28  28 100 S16       30.08S FOG     WCI  17
APPLETON       CLOUDY    32  28  86 S7        30.08S FOG     WCI  26
BENSON         CLOUDY    30  27  86 SW14      30.09S FOG     WCI  20
ORTONVILLE     CLOUDY    30  27  86 S9        30.05S WCI  22
MADISON        PTSUNNY   36  32  87 S7        30.07S FOG
WILLMAR        CLOUDY    32  28  86 S5        30.11S FOG     WCI  27
$$
MNZ033>034-036-042>043-049>051-058-059-192200-
   Central Minnesota

CITY           SKY/WX    TMP DP  RH WIND       PRES   REMARKS
ST CLOUD       CLOUDY    29  23  78 SE9       30.13F HAZE    WCI  20
SAUK CENTRE    CLOUDY    28  28  98 SE9       30.10S FOG     WCI  19
PAYNESVILLE    CLOUDY    27  27  98 SE6       30.11S FOG     WCI  21
AITKIN         CLOUDY    27  21  80 SE6       30.11S HAZE    WCI  20
PINE RIVER     CLOUDY    23  23 100 SE8       30.13S FOG     WCI  14
BRAINERD       CLOUDY    24  22  91 SE6       30.11F FOG     WCI  17
STAPLES        CLOUDY    23  23 100 SE7       30.08F FOG     WCI  15
LONG PRAIRIE   CLOUDY    27  27 100 SE7       30.09S FOG     WCI  19
LITTLE FALLS   CLOUDY    27  23  86 SE9       30.12S FOG     WCI  17
LITCHFIELD     CLOUDY    30  30 100 SE6       30.12F FOG     WCI  24
BUFFALO        CLOUDY    28  25  86 SE6       30.16F FOG     WCI  22
MAPLE LAKE     CLOUDY    30  27  91 SE9       30.15F FOG     WCI  21
$$
MNZ037-044-045-052-053-192200-
   East Central Minnesota

CITY           SKY/WX    TMP DP  RH WIND       PRES   REMARKS
PRINCETON      CLOUDY    28  25  86 CALM      30.16S FOG
CAMBRIDGE      CLOUDY    28  19  69 SE6       30.15F WCI  22
RUSH CITY      CLOUDY    27  22  82 SE9       30.18F WCI  17
MOOSE LAKE     CLOUDY    27  21  80 CALM      30.15F
HINCKLEY       CLOUDY    27  23  86 CALM      30.17F
CLOQUET        CLOUDY    25  19  80 SE3       30.15S
MCGREGOR       CLOUDY    27  23  86 SE8       30.14S WCI  18
$$
MNZ071>073-080-081-089-090-097-098-192200-
   Southwest Minnesota

CITY           SKY/WX    TMP DP  RH WIND       PRES   REMARKS
MONTEVIDEO     CLOUDY    30  30 100 SW14      30.09F FOG     WCI  20
GRANITE FALLS  CLOUDY    31  28  88 S18       30.10F WCI  20
CANBY          CLOUDY    32  30  92 SW10      30.07S FOG     WCI  23
MARSHALL       CLOUDY    30  27  86 S12       30.08F WCI  21
REDWOOD FALLS  CLOUDY    33  29  85 S13       30.11F FOG     WCI  24
OLIVIA         CLOUDY    34  32  93 S13       30.11S FOG     WCI  25
PIPESTONE      CLOUDY    30  28  93 SW6       30.06S FOG     WCI  24
WINDOM         CLOUDY    32  28  86 S12G20    30.11S WCI  23
WORTHINGTON    CLOUDY    30  27  86 S17       30.10F WCI  18
JACKSON        CLOUDY    32  28  86 S13       30.12S WCI  22
TRACY          CLOUDY    32  29  90 S9        30.09S FOG     WCI  24
SLAYTON        CLOUDY    30  29  97 S7        30.08F FOG     WCI  23
$$
MNZ065>067-074>077-082>085-091>093-192200-
   South Central Minnesota

CITY           SKY/WX    TMP DP  RH WIND       PRES   REMARKS
MANKATO        CLOUDY    30  25  80 S9        30.16S WCI  22
NEW ULM        CLOUDY    30  30 100 S10       30.14S FOG     WCI  21
ST JAMES       CLOUDY    34  30  86 SE13      30.15S FOG     WCI  25
FAIRMONT       CLOUDY    32  25  74 S13       30.14F WCI  22
GLENCOE        CLOUDY    32  30  92 SE8       30.15S FOG     WCI  25
FARIBAULT      CLOUDY    30  27  86 SE8       30.18F FOG     WCI  23
OWATONNA       MOSUNNY   28  25  86 SE8       30.18S FOG     WCI  20
WASECA         CLOUDY    32  28  86 SE8       30.19S FOG     WCI  25
ALBERT LEA     CLOUDY    28  28 100 S9        30.18S FOG     WCI  20
$$
MNZ078>079-086>088-094>096-192200-
   Southeast Minnesota

CITY           SKY/WX    TMP DP  RH WIND       PRES   REMARKS
ROCHESTER      CLOUDY    28  21  75 S9        30.20S WCI  19
RED WING       CLOUDY    28  21  74 SE6       30.21F WCI  22
STANTON        CLOUDY    31  25  80 S9        30.18S WCI  22
DODGE CENTER   CLOUDY    28  27  93 S9        30.18S FOG     WCI  20
WINONA         CLOUDY    32  21  64 SE3       30.25S
AUSTIN         CLOUDY    28  25  86 SE6       30.19S FOG     WCI  22
PRESTON        CLOUDY    27  21  79 S7        30.21S WCI  19
$$
ABBREVIATIONS USED IN REMARKS
   TC - TEMPERATURES IN CELSIUS
  WCI - WIND CHILL INDEX
   HX - HEAT INDEX
  VSB - VISIBILITY
$$



USA.gov is the U.S. government's official web portal to all federal, state and local government web resources and services.